Location: Solstice Park, West Seattle
(47.5363°N, 122.3905°W)
Time: 07:35:02
(UTC-07:00)

ISS - Pass Details

Date: 19 May 2021
Orbit: 417 x 422 km, 51.6° (Epoch: 18 June)

Event Time Altitude Azimuth Distance (km) Brightness Sun altitude
Rises 22:23:30 0° 268° (W) 2,362 0.6 -13.2°
Reaches altitude 10° 22:25:39 10° 274° (W) 1,500 -0.3 -13.4°
Maximum altitude 22:28:54 45° 349° (N) 583 -2.6 -13.8°
Drops below altitude 10° 22:32:10 10° 64° (ENE) 1,506 -1.1 -14.1°
Sets 22:34:20 0° 71° (ENE) 2,373 -0.1 -14.3°
